Probability
10 10 13 6 6 3 6 6 6 3 3 6 10 13 10 16 16 19 16 16 16 19 13 10 16 10 10 10 13 6 3 3 6 6 6 6 3 3 3 3 3 3 3
10 13 16 19 13 19 13 13 6 3 6 6 16 16 16 16 19 19 19 16 16 19 23 19 16 10 13 13 13 13 10 6 10 10 13 10 10 3 3 6 3 3 3
10 13 13 16 13 19 23 19 16 19 23 13 16 16 16 19 19 16 19 23 19 19 23 19 19 16 16 13 13 13 10 10 10 10 13 16 6 3 3 3 3 6 3
10 13 16 13 13 19 13 16 19 23 26 26 19 19 16 16 16 19 23 23 23 19 16 19 19 19 19 19 16 16 13 13 13 6 19 19 16 10 10 10 10 6 6
13 13 10 16 16 19 16 19 16 16 19 23 26 23 23 19 23 23 23 23 23 19 16 19 19 16 13 13 13 13 13 13 19 19 19 19 19 10 10 10 10 10 10
16 16 16 16 23 23 23 19 16 16 13 13 19 29 29 29 19 13 23 23 23 19 19 23 19 16 13 13 10 10 13 16 16 16 16 19 19 19 16 10 10 13 13
16 19 19 19 26 26 26 16 16 19 13 13 10 23 23 26 6 3 6 16 26 23 19 19 16 13 10 13 10 3 3 3 6 13 16 16 19 19 16 13 13 16 19
19 19 23 26 23 19 16 19 16 16 13 13 13 13 19 19 3 0 0 0 19 16 19 16 19 19 13 13 13 13 13 10 3 3 3 10 10 6 10 10 13 13 16
16 19 19 16 16 10 16 16 16 13 13 13 13 13 19 23 6 0 0 6 19 23 19 19 19 19 10 6 10 13 10 6 3 3 3 3 0 0 3 3 13 10 13
16 13 13 13 13 10 13 13 6 13 13 13 16 13 13 16 13 0 0 10 19 16 19 23 3 6 3 3 3 10 10 10 6 3 3 0 0 0 0 3 3 6 6
10 13 13 13 13 13 13 10 6 6 13 10 16 16 16 16 16 3 0 6 19 16 13 16 16 3 3 3 3 3 10 3 6 6 6 3 3 3 3 3 3 6 6
10 10 13 13 13 13 10 6 6 6 3 10 13 10 10 3 6 6 3 0 3 13 13 13 16 0 0 0 0 3 3 3 3 3 6 6 6 6 6 3 3 3 6
6 6 10 10 13 13 6 6 6 3 3 10 10 10 6 6 3 0 0 0 0 3 6 6 0 0 0 0 0 0 0 0 3 3 3 3 6 6 6 6 3 0 0
6 6 6 10 13 13 10 10 6 6 6 6 10 10 6 3 3 3 0 0 0 0 0 0 0 0 0 0 0 0 0 0 3 3 3 3 3 3 3 3 3 0 0
6 6 6 10 10 6 6 6 3 3 6 6 6 3 3 3 3 3 3 0 3 6 6 0 0 0 0 0 0 0 0 0 0 3 3 3 3 3 3 0 0 0 0
6 6 6 10 6 3 3 6 3 3 3 3 3 3 3 3 3 0 0 0 0 0 0 0 0 0 0 0 0 0 0 0 0 3 3 3 3 3 0 0 0 0 0
3 3 6 6 3 3 3 3 6 3 0 0 0 0 3 3 3 0 0 0 0 0 0 0 3 0 0 0 0 0 0 0 0 0 0 3 0 0 0 0 0 0 0
3 3 6 3 3 3 3 3 6 6 6 3 0 0 0 0 0 0 0 0 0 0 0 0 0 0 0 0 0 0 0 0 0 0 0 3 0 0 0 0 0 0 0
6 6 3 3 3 3 3 3 6 3 3 3 0 0 0 0 0 0 0 0 0 0 0 0 0 0 0 0 0 0 0 0 0 0 0 0 0 0 0 0 0 0 0
3 3 3 3 3 3 3 3 3 3 3 3 3 0 0 0 0 0 0 0 0 0 0 0 0 0 0 0 0 0 0 3 0 0 0 0 0 0 0 0 0 0 0
3 3 3 3 3 3 3 3 3 3 3 3 0 0 0 0 0 0 0 0 0 0 0 0 0 0 0 0 0 0 0 3 3 0 0 0 0 0 0 0 0 0 0
3 3 3 3 3 3 6 3 3 3 3 0 0 0 0 0 0 0 0 0 0 0 0 0 0 0 0 0 0 0 0 0 0 0 0 0 0 0 0 0 0 0 0
3 3 3 3 3 3 3 3 3 0 0 0 0 0 0 0 0 0 0 0 0 0 0 0 0 0 0 0 0 0 0 0 0 0 0 0 0 0 0 0 0 0 0
0 0 0 0 0 0 3 3 3 3 3 3 0 0 0 0 0 0 0 0 0 0 0 0 0 0 0 0 0 0 0 0 0 0 0 0 0 0 0 0 0 0 0
0 0 0 0 0 0 3 3 0 3 3 3 3 0 0 0 0 0 0 0 0 0 0 0 0 0 0 0 0 0 0 0 0 0 0 0 0 0 0 0 0 0 0
0 0 0 0 0 0 0 0 3 3 3 3 0 0 0 0 0 0 0 0 0 0 0 0 0 0 0 0 0 0 0 0 0 0 0 0 0 0 0 0 0 0 0
Height
5877 5877 5878 5877 5877 5878 5878 5877 5877 5877 5876 5876 5875 5875 5874 5874 5873 5872 5871 5870 5869 5868 5867 5867 5866 5865 5864 5863 5863 5862 5861 5861 5860 5859 5858 5857 5856 5855 5854 5853 5852 5852 5851
5874 5875 5875 5875 5875 5875 5875 5874 5874 5873 5873 5873 5872 5872 5871 5870 5869 5868 5868 5866 5865 5864 5863 5862 5862 5861 5860 5859 5858 5857 5856 5856 5855 5854 5853 5852 5851 5850 5849 5848 5847 5846 5845
5871 5872 5872 5872 5871 5871 5871 5870 5869 5869 5869 5869 5868 5867 5867 5866 5865 5864 5863 5862 5861 5860 5859 5858 5857 5856 5855 5854 5853 5852 5851 5850 5849 5848 5847 5846 5845 5844 5843 5842 5840 5839 5838
5868 5868 5868 5868 5867 5867 5865 5865 5865 5864 5864 5864 5863 5863 5862 5862 5861 5860 5859 5858 5856 5855 5854 5853 5851 5850 5850 5848 5848 5846 5845 5844 5843 5842 5841 5840 5838 5837 5836 5835 5834 5833 5831
5864 5864 5863 5863 5863 5862 5861 5860 5860 5859 5858 5858 5858 5857 5857 5856 5855 5854 5853 5852 5851 5849 5848 5847 5846 5845 5844 5843 5842 5841 5839 5838 5837 5835 5834 5833 5832 5830 5829 5828 5827 5825 5824
5858 5858 5858 5858 5857 5856 5855 5855 5854 5853 5853 5852 5852 5851 5851 5850 5849 5848 5847 5846 5845 5844 5842 5841 5839 5838 5837 5836 5835 5834 5833 5831 5830 5828 5827 5826 5824 5823 5821 5820 5819 5818 5817
5853 5852 5852 5851 5851 5850 5849 5848 5848 5847 5846 5846 5845 5844 5844 5843 5842 5841 5840 5839 5838 5837 5836 5834 5833 5832 5830 5829 5828 5826 5825 5823 5822 5820 5819 5817 5816 5814 5813 5811 5810 5809 5808
5847 5846 5845 5844 5844 5843 5842 5841 5840 5840 5839 5838 5838 5837 5836 5835 5834 5833 5832 5831 5830 5829 5828 5827 5825 5824 5822 5821 5819 5818 5816 5815 5813 5811 5810 5809 5807 5805 5804 5802 5801 5800 5799
5839 5838 5838 5837 5837 5836 5835 5834 5833 5832 5831 5830 5830 5829 5828 5827 5826 5825 5823 5822 5821 5821 5820 5818 5817 5815 5814 5812 5811 5809 5807 5805 5803 5802 5801 5799 5797 5796 5794 5793 5791 5790 5789
5831 5831 5830 5829 5829 5828 5827 5826 5825 5824 5823 5822 5821 5820 5820 5819 5818 5816 5815 5813 5812 5812 5811 5809 5807 5806 5805 5802 5801 5799 5797 5796 5794 5792 5790 5788 5787 5786 5784 5782 5781 5780 5779
5824 5823 5822 5821 5820 5820 5819 5817 5816 5815 5814 5813 5812 5811 5810 5810 5809 5807 5805 5804 5803 5802 5800 5799 5798 5796 5794 5792 5790 5789 5788 5786 5783 5782 5780 5778 5776 5775 5773 5772 5770 5769 5768
5816 5815 5814 5813 5812 5810 5809 5808 5807 5806 5805 5803 5802 5801 5800 5799 5798 5797 5795 5794 5792 5791 5790 5788 5787 5785 5783 5781 5779 5778 5776 5774 5773 5771 5769 5767 5766 5764 5762 5761 5759 5758 5756
5808 5807 5806 5804 5803 5802 5800 5799 5798 5796 5796 5794 5792 5791 5790 5789 5788 5786 5785 5783 5781 5780 5778 5777 5775 5773 5771 5770 5768 5766 5764 5762 5761 5760 5758 5756 5754 5753 5751 5750 5748 5746 5745
5800 5798 5797 5796 5794 5793 5792 5790 5789 5787 5786 5785 5783 5781 5780 5779 5778 5776 5774 5772 5770 5768 5767 5765 5763 5761 5759 5758 5756 5754 5752 5750 5749 5748 5746 5744 5742 5741 5740 5738 5737 5735 5734
5791 5790 5788 5787 5786 5785 5783 5782 5780 5778 5776 5775 5773 5772 5770 5769 5767 5765 5763 5761 5759 5757 5755 5752 5751 5749 5747 5745 5744 5741 5739 5738 5736 5735 5734 5732 5730 5729 5727 5726 5724 5723 5721
5782 5781 5780 5778 5777 5776 5775 5773 5771 5770 5768 5765 5764 5762 5760 5758 5756 5755 5752 5750 5747 5745 5743 5741 5739 5737 5735 5732 5730 5728 5726 5724 5723 5722 5721 5719 5718 5716 5715 5713 5712 5710 5709
5773 5772 5771 5769 5768 5767 5766 5764 5763 5761 5759 5756 5754 5752 5750 5748 5746 5744 5741 5738 5736 5733 5730 5728 5726 5724 5722 5720 5717 5715 5714 5712 5710 5709 5708 5707 5705 5704 5702 5701 5699 5697 5696
5764 5763 5762 5761 5759 5758 5756 5755 5753 5751 5750 5747 5746 5743 5741 5738 5736 5733 5730 5727 5724 5722 5719 5716 5714 5712 5710 5708 5706 5704 5702 5700 5698 5697 5695 5694 5692 5691 5689 5688 5687 5685 5683
5756 5755 5753 5752 5750 5749 5747 5746 5744 5742 5740 5738 5736 5734 5731 5728 5726 5723 5720 5716 5713 5710 5707 5705 5702 5700 5698 5696 5694 5692 5690 5688 5686 5685 5683 5681 5680 5678 5677 5676 5674 5672 5670
5748 5746 5745 5743 5742 5740 5738 5737 5735 5733 5731 5729 5726 5724 5721 5719 5716 5713 5709 5706 5703 5700 5697 5694 5691 5689 5686 5684 5682 5680 5677 5675 5674 5672 5670 5669 5667 5666 5664 5663 5661 5659 5658
5740 5739 5737 5735 5734 5732 5729 5728 5726 5724 5722 5719 5717 5715 5712 5709 5706 5703 5700 5696 5693 5690 5687 5684 5681 5678 5675 5673 5670 5668 5666 5663 5661 5659 5658 5656 5654 5653 5652 5650 5648 5647 5645
5733 5731 5729 5728 5726 5724 5722 5720 5718 5715 5713 5711 5708 5705 5702 5700 5697 5694 5691 5687 5684 5681 5677 5674 5670 5667 5664 5662 5659 5657 5654 5652 5649 5647 5645 5644 5642 5640 5639 5637 5635 5633 5632
5726 5724 5722 5720 5718 5716 5714 5712 5710 5708 5705 5703 5700 5697 5694 5691 5688 5685 5682 5678 5675 5671 5667 5664 5661 5657 5654 5651 5648 5645 5643 5641 5638 5636 5634 5632 5630 5628 5626 5624 5622 5620 5618
5719 5717 5715 5713 5712 5710 5707 5705 5702 5700 5697 5694 5691 5688 5685 5682 5679 5676 5672 5669 5665 5661 5658 5654 5651 5648 5644 5641 5638 5635 5632 5629 5627 5625 5622 5620 5618 5615 5613 5611 5609 5607 5605
5712 5711 5709 5707 5705 5702 5700 5698 5695 5692 5689 5686 5683 5680 5677 5674 5670 5667 5663 5659 5656 5652 5648 5645 5641 5638 5635 5631 5628 5625 5622 5619 5616 5613 5610 5607 5605 5602 5600 5598 5596 5593 5591
5706 5704 5702 5700 5698 5695 5693 5690 5687 5684 5681 5678 5675 5672 5668 5665 5661 5658 5654 5650 5646 5643 5639 5635 5631 5628 5624 5621 5617 5614 5611 5608 5604 5601 5598 5595 5592 5590 5587 5584 5582 5580 5578
Wind_Speed
7 7 7 7 8 8 9 10 11 11 11 12 12 12 12 12 13 13 13 13 13 14 14 14 15 15 15 16 16 17 17 18 17 18 19 20 20 20 20 20 20 20 21
9 9 10 10 11 11 12 13 14 14 13 14 14 14 14 14 14 15 15 15 15 15 16 16 17 17 17 17 18 18 19 20 20 20 21 21 22 21 21 21 21 21 22
11 12 12 13 13 14 14 15 16 16 16 15 15 16 16 16 16 17 17 17 18 18 18 18 18 18 19 19 19 20 21 21 21 22 22 23 23 23 22 23 23 23 24
14 15 15 15 15 16 16 16 17 17 17 17 18 17 18 18 19 19 20 20 20 20 20 19 19 19 20 21 22 22 22 22 23 23 24 24 24 24 24 24 25 25 25
17 17 17 18 18 19 18 19 19 18 18 19 19 20 20 20 21 22 22 23 22 22 21 21 22 21 22 23 23 24 24 24 24 25 25 25 25 26 26 26 26 26 27
19 20 20 20 20 21 20 20 21 20 20 21 21 22 23 23 23 24 24 24 24 24 24 24 24 24 24 25 25 25 26 26 26 27 27 27 27 28 28 28 28 28 28
21 21 22 22 22 22 22 22 23 23 23 23 23 24 24 25 25 25 25 25 26 26 26 26 27 27 26 27 27 28 28 28 29 29 28 28 28 29 30 30 29 29 30
24 24 24 24 24 25 26 25 25 26 25 25 25 26 26 26 26 27 28 28 29 29 29 29 29 29 30 30 30 30 31 31 31 31 30 30 30 31 31 31 31 32 31
25 26 26 27 27 27 28 28 27 26 26 25 26 26 27 27 28 29 30 31 31 31 31 31 31 32 32 32 32 32 32 32 32 32 33 33 33 33 33 33 33 32 32
26 27 28 28 28 29 29 29 28 28 28 27 27 28 29 29 30 31 31 32 33 32 32 33 33 33 34 34 35 34 34 34 33 33 33 34 34 34 33 33 33 33 33
27 28 28 29 29 30 30 29 29 29 30 29 30 31 31 31 31 32 33 33 34 34 34 35 35 35 35 36 36 37 37 36 35 35 36 36 35 35 35 35 35 35 36
26 27 27 27 28 29 29 29 29 30 30 30 31 31 31 32 32 33 34 34 35 36 36 37 37 37 37 37 38 38 38 38 38 38 37 37 37 37 37 37 37 37 37
27 28 28 28 28 28 28 28 28 30 31 32 32 32 32 32 33 33 34 35 35 37 37 38 39 39 40 40 40 40 40 40 40 39 39 38 39 39 39 39 38 38 38
28 29 29 29 29 28 28 29 30 31 32 32 33 33 32 33 33 34 35 36 37 38 39 39 39 40 41 41 41 42 42 42 42 41 40 40 40 40 41 40 40 40 39
30 30 30 30 30 29 29 30 31 31 32 33 34 33 33 34 34 35 36 37 38 39 40 40 41 41 41 43 43 42 42 41 42 42 42 42 42 41 41 41 41 41 41
31 31 30 30 30 31 31 31 31 31 32 33 33 33 34 34 34 35 36 37 38 39 39 40 41 42 42 42 42 42 42 41 41 42 42 41 41 41 41 41 41 41 41
32 32 31 30 31 31 31 30 31 31 32 32 33 34 34 34 34 35 36 37 37 37 38 39 40 40 40 40 40 40 40 40 40 41 41 42 43 42 42 41 41 41 41
31 31 30 30 30 30 30 30 30 31 32 32 33 33 33 34 34 35 36 37 36 37 37 37 38 39 39 40 40 40 40 40 41 41 41 42 41 41 41 41 41 41 41
30 30 30 29 29 29 30 30 31 31 32 32 32 33 33 33 34 35 35 35 36 36 36 37 38 38 39 39 40 40 40 41 41 41 40 40 40 40 40 39 40 40 41
28 28 27 27 27 28 29 29 30 31 31 32 32 33 32 32 33 34 34 34 35 35 35 35 36 36 37 37 37 38 38 38 39 39 39 39 39 39 39 39 40 40 40
26 27 26 26 26 27 27 28 29 29 30 31 32 32 32 32 32 33 33 34 34 34 34 35 35 36 36 37 37 37 37 38 38 38 38 39 40 39 40 40 40 40 40
26 26 26 26 26 26 27 27 27 28 29 30 31 31 31 32 32 33 34 35 34 34 34 35 36 36 36 37 38 38 37 38 38 37 38 38 39 39 40 40 40 39 40
25 25 25 25 25 26 27 27 27 28 28 29 29 30 31 31 32 33 34 34 34 33 33 33 34 35 35 35 35 35 36 36 36 36 37 37 38 38 39 39 40 39 40
23 23 23 24 25 26 26 27 27 27 28 28 29 30 30 31 31 32 33 33 34 34 33 34 34 33 34 34 34 33 33 34 35 36 36 37 38 38 39 39 40 40 40
22 22 22 23 23 24 25 26 27 28 28 29 30 30 30 31 31 32 33 34 34 34 34 34 33 33 33 33 33 33 34 34 35 35 36 37 38 39 39 40 40 40 40
21 21 22 22 22 23 25 26 28 28 29 29 30 30 31 31 32 33 33 33 33 33 33 34 34 34 34 34 34 34 34 35 34 34 35 36 36 37 37 38 38 39 39
Wind_Direction
268 265 260 260 263 267 271 273 275 278 279 275 274 276 277 279 282 282 281 282 282 282 281 279 277 277 276 277 276 277 278 279 278 277 278 279 279 278 278 278 279 280 281
268 268 268 266 266 266 268 271 272 272 276 276 274 274 277 280 281 281 280 281 281 281 279 277 276 276 276 276 277 279 279 279 279 278 279 280 281 280 279 279 280 281 282
269 269 269 269 268 266 267 269 271 272 274 277 275 273 273 277 279 280 280 281 281 280 278 277 277 277 278 279 279 280 280 280 279 280 280 280 281 280 280 281 281 281 282
270 271 269 271 271 270 271 273 272 272 272 273 274 273 273 276 278 280 280 280 281 279 277 277 278 279 280 282 282 282 282 282 282 282 281 281 282 281 281 280 279 280 282
270 272 272 273 271 275 276 277 277 272 271 273 274 273 274 276 278 280 280 279 279 278 277 278 278 278 280 282 283 282 282 283 284 284 282 282 283 283 282 281 280 280 281
274 276 274 275 275 274 275 276 277 273 272 273 273 273 273 275 276 279 281 281 280 279 279 279 279 278 279 281 282 282 283 283 284 283 283 282 281 282 282 281 281 281 280
277 278 277 276 275 275 275 277 278 275 272 274 274 274 274 274 276 277 279 279 279 279 279 280 281 281 281 281 281 281 282 282 282 282 283 281 280 280 281 280 280 281 280
277 279 279 277 276 277 278 279 278 276 273 275 275 274 274 274 275 275 275 277 278 279 279 279 280 281 282 282 282 282 281 281 281 281 281 280 279 279 280 279 279 280 280
276 278 278 277 276 277 279 279 278 275 275 277 276 275 276 275 275 276 276 276 277 278 279 280 281 281 282 283 282 282 282 282 281 282 282 280 279 279 279 279 279 278 277
279 280 278 277 277 277 278 278 278 277 276 276 276 276 277 276 275 277 277 278 277 278 279 280 282 283 282 282 282 282 282 283 281 281 282 281 280 280 280 279 278 278 279
280 280 281 280 280 279 279 278 278 277 277 276 276 277 276 276 277 278 278 278 278 278 278 279 281 281 282 281 281 283 283 282 281 281 281 280 280 281 280 280 279 280 281
280 281 281 283 283 280 279 279 278 278 280 278 277 277 276 278 279 280 279 278 278 278 278 279 279 280 281 281 281 282 282 281 281 281 282 281 279 280 280 279 280 281 281
281 282 283 284 282 281 281 280 281 282 282 279 279 278 277 278 280 281 281 280 280 279 279 279 278 279 280 280 281 281 281 281 280 280 281 282 280 279 280 280 280 280 281
281 283 284 283 282 281 282 283 284 285 285 284 282 282 279 278 279 281 282 282 282 280 280 280 280 280 281 280 281 281 281 280 279 281 281 281 280 279 280 279 279 279 280
281 282 283 282 282 282 284 284 284 284 286 286 286 283 282 283 282 282 283 284 283 282 281 281 282 283 283 282 282 282 283 282 281 280 280 280 280 279 279 279 280 281 281
280 280 281 282 282 282 284 285 284 284 286 286 287 286 286 286 286 286 284 284 284 283 282 282 283 283 283 284 283 283 283 281 281 280 280 281 280 280 280 280 281 281 281
280 279 280 282 283 283 283 284 285 285 286 286 287 288 289 290 290 289 287 287 287 287 285 284 284 283 283 284 283 282 282 281 281 280 279 279 279 280 280 280 281 282 282
281 280 280 282 283 283 284 286 286 285 285 286 288 289 291 291 291 290 289 289 288 288 286 285 285 284 283 282 282 282 282 281 280 279 278 279 278 278 279 280 281 281 281
281 281 282 283 284 284 284 286 287 286 286 287 289 291 292 292 292 292 291 292 292 290 289 288 287 286 286 284 283 283 283 281 281 280 278 278 277 278 279 281 282 282 281
283 281 282 283 284 285 286 287 287 287 288 289 290 291 292 294 295 295 294 295 295 293 291 290 289 288 287 286 286 286 285 283 281 279 279 278 279 280 279 279 280 281 282
283 282 282 284 285 288 290 290 290 292 293 293 293 293 294 295 297 298 298 297 298 296 293 292 291 290 288 286 286 285 284 283 280 279 279 280 279 280 280 280 281 281 282
284 283 284 286 287 289 292 293 294 295 296 296 297 297 296 296 297 299 299 297 297 297 295 294 294 293 292 291 288 286 285 283 282 281 282 281 281 281 281 281 282 282 282
286 287 287 288 289 292 293 295 296 296 297 297 299 301 300 300 300 299 300 300 299 298 296 296 294 294 293 293 292 290 287 286 284 283 282 281 282 282 282 282 282 281 282
291 290 290 291 292 293 296 297 297 297 297 299 300 302 302 300 300 301 302 303 301 300 298 296 296 296 295 295 294 293 292 290 288 286 285 284 284 283 283 282 282 282 282
290 290 292 293 295 296 297 297 298 300 300 301 301 301 302 302 302 303 303 303 302 300 300 299 299 299 298 297 295 294 294 293 291 289 288 287 286 285 284 284 283 283 283
295 294 294 296 298 299 301 302 302 303 303 302 302 302 303 304 304 304 304 305 304 302 301 300 300 300 300 298 297 296 296 296 294 293 291 290 288 287 287 287 288 287 286